Nashua, NH

8:37 PM EDT on August 19, 2019 (GMT -0400)
Boire

Weather History for KASH - May, 2019

Change the Weather History Date:

Wednesday, May 8, 2019

  Actual Average Record
Temperature  
Mean Temperature 56 °F -  
Max Temperature 66 °F 63 °F 87 °F (2000)
Min Temperature 46 °F 38 °F 25 °F (1968)
Degree Days  
Heating Degree Days 9    
Growing Degree Days 6 (Base 50)    
Moisture  
Dew Point 41 °F    
Average Humidity 74    
Maximum Humidity 100    
Minimum Humidity 18    
Precipitation  
Precipitation 0.01 in - - ()
Sea Level Pressure  
Sea Level Pressure 30.22 in    
Wind  
Wind Speed 5 mph (NW)    
Max Wind Speed 16 mph    
Max Gust Speed 22 mph    
Visibility 6 miles    
Events Fog    
Averages and records for this station are not official NWS values.
T = Trace of Precipitation, MM = Missing Value Source: NWS Daily Summary

Daily Weather History Graph

Daily Weather History Graph

Search for Another Location

Airport or City:

Astronomy

May. 08, 2019 Rise Set
Actual Time 5:31 AM EDT 7:54 PM EDT
Civil Twilight 4:59 AM EDT 8:25 PM EDT
Nautical Twilight 4:20 AM EDT 9:05 PM EDT
Astronomical Twilight 3:37 AM EDT 9:49 PM EDT
Moon 8:23 AM EDT (5/8) 11:53 PM EDT (5/8)
Length of Visible Light 15h 25m
Length of Day
14h 22m
Waxing Crescent, 15% of the Moon is Illuminated
May 8
Waxing Crescent
May 11
First Quarter
May 18
Full
May 26
Last Quarter
Jun 3
New

Hourly Weather History & Observations

Time (EDT) Temp. Windchill Dew Point Humidity Pressure Visibility Wind Dir Wind Speed Gust Speed Precip Events Conditions
12:56 AM 52.0 °F - 52.0 °F 100% 30.19 in 3.0 mi Calm Calm - N/A   Partly Cloudy
1:00 AM 51.8 °F - 51.8 °F 100% 30.16 in 2.0 mi NW 3.5 mph - N/A   Partly Cloudy
1:04 AM 51.8 °F - 51.8 °F 100% 30.16 in 1.0 mi NW 3.5 mph - N/A   Mist
1:10 AM 51.8 °F - 51.8 °F 100% 30.16 in 0.5 mi WNW 3.5 mph - N/A Fog Fog
1:34 AM 51.8 °F - 51.8 °F 100% 30.16 in 1.0 mi WNW 3.5 mph - N/A   Mostly Cloudy
1:38 AM 51.8 °F - 51.8 °F 100% 30.16 in 2.0 mi WNW 3.5 mph - N/A   Mostly Cloudy
1:41 AM 51.8 °F - 51.8 °F 100% 30.16 in 3.0 mi WNW 4.6 mph - N/A   Mostly Cloudy
1:48 AM 48.2 °F - 48.2 °F 100% 30.16 in 1.8 mi WNW 3.5 mph - N/A   Mostly Cloudy
1:52 AM 50.0 °F - 50.0 °F 100% 30.16 in 0.8 mi NW 3.5 mph - N/A   Mostly Cloudy
1:56 AM 50.0 °F - 50.0 °F 100% 30.19 in 0.5 mi NW 4.6 mph - N/A Fog Fog
2:05 AM 50.0 °F - 50.0 °F 100% 30.17 in 0.2 mi WNW 3.5 mph - N/A Fog Fog
2:10 AM 51.8 °F - 51.8 °F 100% 30.17 in 0.8 mi WNW 3.5 mph - N/A   Mostly Cloudy
2:13 AM 50.0 °F - 50.0 °F 100% 30.17 in 1.5 mi WNW 3.5 mph - N/A   Mostly Cloudy
2:20 AM 48.2 °F - 48.2 °F 100% 30.17 in 0.8 mi NW 3.5 mph - N/A   Scattered Clouds
2:42 AM 50.0 °F - 50.0 °F 100% 30.17 in 1.5 mi WNW 3.5 mph - N/A   Mostly Cloudy
2:45 AM 51.8 °F - 51.8 °F 100% 30.17 in 4.0 mi WNW 3.5 mph - N/A   Scattered Clouds
2:56 AM 48.0 °F - 48.0 °F 100% 30.20 in 1.8 mi WNW 3.5 mph - N/A   Scattered Clouds
3:00 AM 48.2 °F - 48.2 °F 100% 30.17 in 0.8 mi WNW 3.5 mph - N/A   Partly Cloudy
3:12 AM 48.2 °F - 48.2 °F 100% 30.17 in 1.2 mi WNW 3.5 mph - N/A   Clear
3:16 AM 48.2 °F - 48.2 °F 100% 30.17 in 3.0 mi WNW 4.6 mph - N/A   Clear
3:46 AM 46.4 °F 44.3 °F 46.4 °F 100% 30.17 in 1.8 mi NW 4.6 mph - N/A   Clear
3:56 AM 48.0 °F - 48.0 °F 100% 30.20 in 2.0 mi NW 5.8 mph - N/A   Clear
4:13 AM 48.2 °F - 48.2 °F 100% 30.17 in 10.0 mi WNW 5.8 mph - N/A   Clear
4:56 AM 46.0 °F 43.9 °F 46.0 °F 100% 30.22 in 10.0 mi NW 4.6 mph - N/A   Clear
5:56 AM 46.0 °F 43.9 °F 46.0 °F 100% 30.25 in 10.0 mi WNW 4.6 mph - N/A   Clear
6:56 AM 48.9 °F - 46.9 °F 93% 30.27 in 10.0 mi NW 5.8 mph - N/A   Clear
7:56 AM 52.0 °F - 42.1 °F 69% 30.28 in 10.0 mi NNW 9.2 mph - 0.01 in   Clear
8:56 AM 54.0 °F - 37.9 °F 55% 30.30 in 10.0 mi NW 11.5 mph 18.4 mph N/A   Clear
9:56 AM 55.9 °F - 39.9 °F 55% 30.30 in 10.0 mi North 8.1 mph - N/A   Clear
10:56 AM 57.9 °F - 39.0 °F 49% 30.29 in 10.0 mi Variable 6.9 mph - N/A   Clear
11:56 AM 63.0 °F - 37.0 °F 38% 30.27 in 10.0 mi WNW 16.1 mph 21.9 mph N/A   Scattered Clouds
12:56 PM 64.0 °F - 32.0 °F 30% 30.25 in 10.0 mi NNW 13.8 mph 21.9 mph N/A   Scattered Clouds
1:56 PM 64.9 °F - 34.0 °F 32% 30.23 in 10.0 mi NNW 15.0 mph 19.6 mph N/A   Partly Cloudy
2:56 PM 66.0 °F - 30.9 °F 27% 30.22 in 10.0 mi NW 12.7 mph 18.4 mph N/A   Clear
3:56 PM 66.9 °F - 30.0 °F 25% 30.22 in 10.0 mi NNW 16.1 mph 19.6 mph N/A   Clear
4:56 PM 66.0 °F - 21.0 °F 18% 30.23 in 10.0 mi NNW 15.0 mph 20.7 mph N/A   Clear
5:56 PM 64.0 °F - 21.0 °F 19% 30.25 in 10.0 mi North 11.5 mph 16.1 mph N/A   Clear
6:56 PM 62.1 °F - 18.0 °F 18% 30.27 in 10.0 mi NNW 12.7 mph - N/A   Clear
7:56 PM 57.9 °F - 18.0 °F 21% 30.29 in 10.0 mi NNW 8.1 mph - N/A   Clear
8:56 PM 55.0 °F - 19.9 °F 25% 30.32 in 10.0 mi NNW 8.1 mph - N/A   Clear
9:56 PM 53.1 °F - 21.9 °F 30% 30.34 in 10.0 mi NNW 3.5 mph - N/A   Clear
10:56 PM 50.0 °F - 25.0 °F 38% 30.36 in 10.0 mi NNW 5.8 mph - N/A   Clear
11:56 PM 48.0 °F - 27.0 °F 44% 30.38 in 10.0 mi Calm Calm - N/A   Clear